Time,TemperatureF,DewpointF,PressureIn,WindDirection,WindDirectionDegrees,WindSpeedMPH,WindSpeedGustMPH,Humidity,HourlyPrecipIn,Conditions,Clouds,dailyrainin,SoftwareType,DateUTC
2013-08-26 00:00:00,74.0,68.5,27.96,NNW,333,0.0,0.0,83,0.00,,---,0.03,VWS V14.01,2013-08-26 05:00:00,
2013-08-26 00:05:00,73.7,68.2,27.97,NNW,333,0.0,0.0,83,0.00,,---,0.00,VWS V14.01,2013-08-26 05:05:00,
2013-08-26 00:10:00,73.5,68.0,27.97,NNW,333,0.0,0.0,83,0.00,,---,0.00,VWS V14.01,2013-08-26 05:10:00,
2013-08-26 00:16:00,73.3,68.2,27.97,NNW,333,0.0,0.0,84,0.00,,---,0.00,VWS V14.01,2013-08-26 05:16:00,
2013-08-26 00:21:00,73.0,67.9,27.97,NNW,333,0.0,0.0,84,0.00,,---,0.00,VWS V14.01,2013-08-26 05:21:00,
2013-08-26 00:26:00,72.7,67.9,27.97,NNW,333,0.0,0.0,85,0.00,,---,0.00,VWS V14.01,2013-08-26 05:26:00,
2013-08-26 00:31:00,72.4,68.0,27.97,NNW,333,0.0,0.0,86,0.00,,---,0.00,VWS V14.01,2013-08-26 05:31:00,
2013-08-26 00:36:00,72.2,67.8,27.97,NNW,333,0.0,0.0,86,0.00,,---,0.00,VWS V14.01,2013-08-26 05:36:00,
2013-08-26 00:41:00,72.0,67.9,27.97,NNW,333,0.0,0.0,87,0.00,,---,0.00,VWS V14.01,2013-08-26 05:41:00,
2013-08-26 00:46:00,71.8,67.7,27.97,NNW,333,0.0,0.0,87,0.00,,---,0.00,VWS V14.01,2013-08-26 05:46:00,
2013-08-26 00:51:00,71.5,67.4,27.97,NNW,333,0.0,0.0,87,0.00,,---,0.00,VWS V14.01,2013-08-26 05:51:00,
2013-08-26 00:56:00,71.3,67.6,27.97,NNW,333,0.0,0.0,88,0.00,,---,0.00,VWS V14.01,2013-08-26 05:56:00,
2013-08-26 01:01:00,71.0,67.6,27.96,NNW,333,0.0,0.0,89,0.00,,---,0.00,VWS V14.01,2013-08-26 06:01:00,
2013-08-26 01:06:00,70.7,67.6,27.96,NNW,333,0.0,0.0,90,0.00,,---,0.00,VWS V14.01,2013-08-26 06:06:00,
2013-08-26 01:12:00,70.4,67.3,27.96,NNW,333,0.0,0.0,90,0.00,,---,0.00,VWS V14.01,2013-08-26 06:12:00,
2013-08-26 01:17:00,70.2,67.4,27.96,NNW,333,0.0,0.0,91,0.00,,---,0.00,VWS V14.01,2013-08-26 06:17:00,
2013-08-26 01:22:00,70.1,67.4,27.96,NNW,333,0.0,0.0,91,0.00,,---,0.00,VWS V14.01,2013-08-26 06:22:00,
2013-08-26 01:27:00,70.1,67.4,27.96,NNW,333,0.0,0.0,91,0.00,,---,0.00,VWS V14.01,2013-08-26 06:27:00,
2013-08-26 01:32:00,69.9,67.5,27.96,NNW,333,0.0,0.0,92,0.00,,---,0.00,VWS V14.01,2013-08-26 06:32:00,
2013-08-26 01:38:00,69.7,67.6,27.96,NNW,333,0.0,0.0,93,0.00,,---,0.00,VWS V14.01,2013-08-26 06:38:00,
2013-08-26 01:43:00,69.4,67.3,27.96,NNW,333,0.0,0.0,93,0.00,,---,0.00,VWS V14.01,2013-08-26 06:43:00,
2013-08-26 01:48:00,69.2,67.1,27.96,NNW,333,0.0,0.0,93,0.00,,---,0.00,VWS V14.01,2013-08-26 06:48:00,
2013-08-26 01:53:00,69.0,66.9,27.96,NNW,333,0.0,0.0,93,0.00,,---,0.00,VWS V14.01,2013-08-26 06:53:00,
2013-08-26 01:58:00,68.9,67.1,27.96,NNW,333,0.0,0.0,94,0.00,,---,0.00,VWS V14.01,2013-08-26 06:58:00,
2013-08-26 02:03:00,68.7,66.9,27.97,NNW,333,0.0,0.0,94,0.00,,---,0.00,VWS V14.01,2013-08-26 07:03:00,
2013-08-26 02:09:00,68.4,66.6,27.97,NNW,333,0.0,0.0,94,0.00,,---,0.00,VWS V14.01,2013-08-26 07:09:00,
2013-08-26 02:14:00,68.0,66.2,27.97,NNW,333,0.0,0.0,94,0.00,,---,0.00,VWS V14.01,2013-08-26 07:14:00,
2013-08-26 02:19:00,67.4,65.3,27.96,NNW,333,0.0,0.0,93,0.00,,---,0.00,VWS V14.01,2013-08-26 07:19:00,
2013-08-26 02:24:00,67.3,65.5,27.96,NNW,333,0.0,0.0,94,0.00,,---,0.00,VWS V14.01,2013-08-26 07:24:00,
2013-08-26 02:29:00,67.5,66.0,27.96,NNW,333,0.0,0.0,95,0.00,,---,0.00,VWS V14.01,2013-08-26 07:29:00,
2013-08-26 02:34:00,67.4,65.9,27.97,NNW,333,0.0,0.0,95,0.00,,---,0.00,VWS V14.01,2013-08-26 07:34:00,
2013-08-26 02:39:00,67.2,65.7,27.97,NNW,333,0.0,0.0,95,0.00,,---,0.00,VWS V14.01,2013-08-26 07:39:00,
2013-08-26 02:44:00,66.9,65.4,27.97,NNW,333,0.0,0.0,95,0.00,,---,0.00,VWS V14.01,2013-08-26 07:44:00,
2013-08-26 02:49:00,66.7,65.2,27.97,NNW,333,0.0,0.0,95,0.00,,---,0.00,VWS V14.01,2013-08-26 07:49:00,
2013-08-26 02:55:00,66.6,65.4,27.97,NNW,333,0.0,0.0,96,0.00,,---,0.00,VWS V14.01,2013-08-26 07:55:00,
2013-08-26 03:00:00,66.5,65.3,27.97,NNW,333,0.0,0.0,96,0.00,,---,0.00,VWS V14.01,2013-08-26 08:00:00,
2013-08-26 03:09:00,66.2,65.0,27.97,NNW,333,0.0,0.0,96,0.00,,---,0.00,VWS V14.01,2013-08-26 08:09:00,
2013-08-26 03:14:00,66.1,64.9,27.97,NNW,333,0.0,0.0,96,0.00,,---,0.00,VWS V14.01,2013-08-26 08:14:00,
2013-08-26 03:20:00,65.9,64.7,27.97,NNW,333,0.0,0.0,96,0.00,,---,0.00,VWS V14.01,2013-08-26 08:20:00,
2013-08-26 03:25:00,65.7,64.5,27.97,NNW,333,0.0,0.0,96,0.00,,---,0.00,VWS V14.01,2013-08-26 08:25:00,
2013-08-26 03:30:00,65.5,64.3,27.97,NNW,333,0.0,0.0,96,0.00,,---,0.00,VWS V14.01,2013-08-26 08:30:00,
2013-08-26 03:35:00,65.3,64.1,27.97,NNW,333,0.0,0.0,96,0.00,,---,0.00,VWS V14.01,2013-08-26 08:35:00,
2013-08-26 03:40:00,65.2,64.0,27.97,NNW,333,0.0,0.0,96,0.00,,---,0.00,VWS V14.01,2013-08-26 08:40:00,
2013-08-26 03:45:00,65.1,63.9,27.97,NNW,333,0.0,0.0,96,0.00,,---,0.00,VWS V14.01,2013-08-26 08:45:00,
2013-08-26 03:50:00,64.9,63.7,27.98,NNW,333,0.0,0.0,96,0.00,,---,0.00,VWS V14.01,2013-08-26 08:50:00,
2013-08-26 03:55:00,64.6,63.4,27.98,NNW,333,0.0,0.0,96,0.00,,---,0.00,VWS V14.01,2013-08-26 08:55:00,
2013-08-26 04:00:00,64.4,63.2,27.98,NNW,333,0.0,0.0,96,0.00,,---,0.00,VWS V14.01,2013-08-26 09:00:00,
2013-08-26 04:06:00,64.2,63.0,27.98,NNW,333,0.0,0.0,96,0.00,,---,0.00,VWS V14.01,2013-08-26 09:06:00,
2013-08-26 04:11:00,64.2,63.3,27.98,NNW,333,0.0,0.0,97,0.00,,---,0.00,VWS V14.01,2013-08-26 09:11:00,
2013-08-26 04:16:00,64.1,63.2,27.98,NNW,333,0.0,0.0,97,0.00,,---,0.00,VWS V14.01,2013-08-26 09:16:00,
2013-08-26 04:21:00,64.0,63.1,27.98,NNW,333,0.0,0.0,97,0.00,,---,0.00,VWS V14.01,2013-08-26 09:21:00,
2013-08-26 04:26:00,64.0,63.1,27.98,NNW,333,0.0,0.0,97,0.00,,---,0.00,VWS V14.01,2013-08-26 09:26:00,
2013-08-26 04:32:00,63.8,62.9,27.98,NNW,333,0.0,0.0,97,0.00,,---,0.00,VWS V14.01,2013-08-26 09:32:00,
2013-08-26 04:37:00,63.6,62.7,27.98,NNW,333,0.0,0.0,97,0.00,,---,0.00,VWS V14.01,2013-08-26 09:37:00,
2013-08-26 04:42:00,63.4,62.5,27.98,NNW,333,0.0,0.0,97,0.00,,---,0.00,VWS V14.01,2013-08-26 09:42:00,
2013-08-26 04:47:00,63.2,62.3,27.99,NNW,333,0.0,0.0,97,0.00,,---,0.00,VWS V14.01,2013-08-26 09:47:00,
2013-08-26 04:53:00,62.9,62.0,27.99,NNW,333,0.0,0.0,97,0.00,,---,0.00,VWS V14.01,2013-08-26 09:53:00,
2013-08-26 04:58:00,62.8,61.9,27.99,NNW,333,0.0,0.0,97,0.00,,---,0.00,VWS V14.01,2013-08-26 09:58:00,
2013-08-26 05:03:00,62.6,61.7,27.99,NNW,333,0.0,0.0,97,0.00,,---,0.00,VWS V14.01,2013-08-26 10:03:00,
2013-08-26 05:08:00,62.6,61.7,27.99,NNW,333,0.0,0.0,97,0.00,,---,0.00,VWS V14.01,2013-08-26 10:08:00,
2013-08-26 05:14:00,62.6,61.7,27.99,NNW,333,0.0,0.0,97,0.00,,---,0.00,VWS V14.01,2013-08-26 10:14:00,
2013-08-26 05:19:00,62.5,61.6,27.99,NNW,333,0.0,0.0,97,0.00,,---,0.00,VWS V14.01,2013-08-26 10:19:00,
2013-08-26 05:24:00,62.5,61.6,27.99,NNW,333,0.0,0.0,97,0.00,,---,0.00,VWS V14.01,2013-08-26 10:24:00,
2013-08-26 05:29:00,62.4,61.5,27.99,NNW,333,0.0,0.0,97,0.00,,---,0.00,VWS V14.01,2013-08-26 10:29:00,
2013-08-26 05:34:00,62.2,61.3,27.99,NNW,333,0.0,0.0,97,0.00,,---,0.00,VWS V14.01,2013-08-26 10:34:00,
2013-08-26 05:39:00,62.2,61.3,27.99,NNW,333,0.0,0.0,97,0.00,,---,0.00,VWS V14.01,2013-08-26 10:39:00,
2013-08-26 05:45:00,62.1,61.2,27.99,NNW,333,0.0,0.0,97,0.00,,---,0.00,VWS V14.01,2013-08-26 10:45:00,
2013-08-26 05:50:00,62.1,61.2,27.99,NNW,333,0.0,0.0,97,0.00,,---,0.00,VWS V14.01,2013-08-26 10:50:00,
2013-08-26 05:55:00,62.0,61.1,27.99,NNW,333,0.0,0.0,97,0.00,,---,0.00,VWS V14.01,2013-08-26 10:55:00,
2013-08-26 06:00:00,61.8,60.9,27.99,NNW,333,0.0,0.0,97,0.00,,---,0.00,VWS V14.01,2013-08-26 11:00:00,
2013-08-26 06:06:00,61.8,60.9,27.99,NNW,333,0.0,0.0,97,0.00,,---,0.00,VWS V14.01,2013-08-26 11:06:00,
2013-08-26 06:11:00,61.7,60.8,27.99,NNW,333,0.0,0.0,97,0.00,,---,0.00,VWS V14.01,2013-08-26 11:11:00,
2013-08-26 06:16:00,61.5,60.6,27.99,NNW,333,0.0,0.0,97,0.00,,---,0.00,VWS V14.01,2013-08-26 11:16:00,
2013-08-26 06:21:00,61.2,60.3,27.99,NNW,333,0.0,0.0,97,0.00,,---,0.00,VWS V14.01,2013-08-26 11:21:00,
2013-08-26 06:26:00,61.3,60.4,27.99,NNW,333,0.0,0.0,97,0.00,,---,0.00,VWS V14.01,2013-08-26 11:26:00,
2013-08-26 06:31:00,61.4,60.8,27.99,NNW,333,0.0,0.0,98,0.00,,---,0.00,VWS V14.01,2013-08-26 11:31:00,
2013-08-26 06:36:00,61.4,60.8,28.00,NNW,333,0.0,0.0,98,0.00,,---,0.00,VWS V14.01,2013-08-26 11:36:00,
2013-08-26 06:41:00,61.4,60.8,28.00,NNW,333,0.0,0.0,98,0.00,,---,0.00,VWS V14.01,2013-08-26 11:41:00,
2013-08-26 06:47:00,61.4,60.8,28.00,NNW,333,0.0,0.0,98,0.00,,---,0.00,VWS V14.01,2013-08-26 11:47:00,
2013-08-26 06:52:00,61.6,61.0,28.00,NNW,333,0.0,0.0,98,0.00,,---,0.00,VWS V14.01,2013-08-26 11:52:00,
2013-08-26 06:57:00,62.0,61.4,28.00,NNW,333,0.0,0.0,98,0.00,,---,0.00,VWS V14.01,2013-08-26 11:57:00,
2013-08-26 07:02:00,62.2,61.6,28.00,NNW,333,0.0,0.0,98,0.00,,---,0.00,VWS V14.01,2013-08-26 12:02:00,
2013-08-26 07:07:00,62.4,61.8,28.00,NNW,333,0.0,0.0,98,0.00,,---,0.00,VWS V14.01,2013-08-26 12:07:00,
2013-08-26 07:12:00,62.5,61.9,28.00,NNW,333,0.0,0.0,98,0.00,,---,0.00,VWS V14.01,2013-08-26 12:12:00,
2013-08-26 07:18:00,62.9,62.3,28.00,NNW,333,0.0,0.0,98,0.00,,---,0.00,VWS V14.01,2013-08-26 12:18:00,
2013-08-26 07:23:00,63.2,62.6,28.00,NNW,333,0.0,0.0,98,0.00,,---,0.00,VWS V14.01,2013-08-26 12:23:00,
2013-08-26 07:28:00,63.8,63.2,28.00,NNW,333,0.0,0.0,98,0.00,,---,0.00,VWS V14.01,2013-08-26 12:28:00,
2013-08-26 07:33:00,64.3,63.7,28.01,NNW,333,0.0,0.0,98,0.00,,---,0.00,VWS V14.01,2013-08-26 12:33:00,
2013-08-26 07:38:00,64.8,64.2,28.01,NNW,333,0.0,0.0,98,0.00,,---,0.00,VWS V14.01,2013-08-26 12:38:00,
2013-08-26 07:44:00,65.8,65.2,28.01,NNW,333,0.0,0.0,98,0.00,,---,0.00,VWS V14.01,2013-08-26 12:44:00,
2013-08-26 07:49:00,66.9,66.6,28.01,NNW,333,0.0,0.0,99,0.00,,---,0.00,VWS V14.01,2013-08-26 12:49:00,
2013-08-26 07:54:00,68.0,67.7,28.01,NNW,333,0.0,0.0,99,0.00,,---,0.00,VWS V14.01,2013-08-26 12:54:00,
2013-08-26 07:59:00,69.0,68.4,28.01,NNW,333,0.0,0.0,98,0.00,,---,0.00,VWS V14.01,2013-08-26 12:59:00,
2013-08-26 08:04:00,70.1,69.5,28.01,NNW,333,0.0,0.0,98,0.00,,---,0.00,VWS V14.01,2013-08-26 13:04:00,
2013-08-26 08:09:00,70.9,69.7,28.01,NNW,333,0.0,0.0,96,0.00,,---,0.00,VWS V14.01,2013-08-26 13:09:00,
2013-08-26 08:15:00,70.9,69.1,28.01,NNW,333,0.0,0.0,94,0.00,,---,0.00,VWS V14.01,2013-08-26 13:15:00,
2013-08-26 08:20:00,71.0,68.9,28.01,NNW,333,0.0,0.0,93,0.00,,---,0.00,VWS V14.01,2013-08-26 13:20:00,
2013-08-26 08:25:00,71.3,68.5,28.01,NNW,333,0.0,0.0,91,0.00,,---,0.00,VWS V14.01,2013-08-26 13:25:00,
2013-08-26 08:30:00,72.0,68.9,28.01,NNW,333,0.0,0.0,90,0.00,,---,0.00,VWS V14.01,2013-08-26 13:30:00,
2013-08-26 08:35:00,73.4,69.6,28.01,NNW,333,0.0,0.0,88,0.00,,---,0.00,VWS V14.01,2013-08-26 13:35:00,
2013-08-26 08:40:00,74.7,69.9,28.01,NNW,333,0.0,0.0,85,0.00,,---,0.00,VWS V14.01,2013-08-26 13:40:00,
2013-08-26 08:46:00,75.9,69.7,28.01,NNW,333,1.0,1.0,81,0.00,,---,0.00,VWS V14.01,2013-08-26 13:46:00,
2013-08-26 08:51:00,76.3,69.7,28.01,NNW,333,0.0,0.0,80,0.00,,---,0.00,VWS V14.01,2013-08-26 13:51:00,
2013-08-26 08:56:00,76.8,69.8,28.01,NNW,333,0.0,0.0,79,0.00,,---,0.00,VWS V14.01,2013-08-26 13:56:00,
2013-08-26 09:01:00,77.1,69.7,28.01,NNW,333,0.0,0.0,78,0.00,,---,0.00,VWS V14.01,2013-08-26 14:01:00,
2013-08-26 09:06:00,77.5,70.5,28.01,NNW,333,0.0,0.0,79,0.00,,---,0.00,VWS V14.01,2013-08-26 14:06:00,
2013-08-26 09:11:00,78.3,70.5,28.01,NNW,333,0.0,0.0,77,0.00,,---,0.00,VWS V14.01,2013-08-26 14:11:00,
2013-08-26 09:16:00,78.8,69.4,28.01,NNW,333,0.0,0.0,73,0.00,,---,0.00,VWS V14.01,2013-08-26 14:16:00,
2013-08-26 09:21:00,79.1,69.7,28.01,NNW,333,0.0,0.0,73,0.00,,---,0.00,VWS V14.01,2013-08-26 14:21:00,
2013-08-26 09:27:00,78.9,69.9,28.01,NNW,333,0.0,1.0,74,0.00,,---,0.00,VWS V14.01,2013-08-26 14:27:00,
2013-08-26 09:32:00,78.8,69.4,28.02,NNW,333,0.0,0.0,73,0.00,,---,0.00,VWS V14.01,2013-08-26 14:32:00,
2013-08-26 09:37:00,79.5,70.1,28.02,NNW,333,0.0,0.0,73,0.00,,---,0.00,VWS V14.01,2013-08-26 14:37:00,
2013-08-26 09:42:00,80.2,69.5,28.02,NNW,333,0.0,0.0,70,0.00,,---,0.00,VWS V14.01,2013-08-26 14:42:00,
2013-08-26 09:48:00,81.2,70.1,28.02,NNW,333,0.0,1.0,69,0.00,,---,0.00,VWS V14.01,2013-08-26 14:48:00,
2013-08-26 09:53:00,81.6,69.2,28.02,NNW,333,0.0,1.0,66,0.00,,---,0.00,VWS V14.01,2013-08-26 14:53:00,
2013-08-26 09:58:00,82.2,69.3,28.02,NNW,333,0.0,0.0,65,0.00,,---,0.00,VWS V14.01,2013-08-26 14:58:00,
2013-08-26 10:03:00,82.1,67.8,28.01,NNW,333,0.0,0.0,62,0.00,,---,0.00,VWS V14.01,2013-08-26 15:03:00,
2013-08-26 10:08:00,81.9,68.1,28.01,NNW,333,0.0,0.0,63,0.00,,---,0.00,VWS V14.01,2013-08-26 15:08:00,
2013-08-26 10:13:00,82.4,66.7,28.01,NNW,333,0.0,0.0,59,0.00,,---,0.00,VWS V14.01,2013-08-26 15:13:00,
2013-08-26 10:18:00,82.7,66.9,28.02,NNW,333,0.0,0.0,59,0.00,,---,0.00,VWS V14.01,2013-08-26 15:18:00,
2013-08-26 10:23:00,83.2,66.4,28.02,NNW,333,0.0,0.0,57,0.00,,---,0.00,VWS V14.01,2013-08-26 15:23:00,
2013-08-26 10:29:00,84.2,66.8,28.02,NNW,333,0.0,0.0,56,0.00,,---,0.00,VWS V14.01,2013-08-26 15:29:00,
2013-08-26 10:34:00,85.3,67.8,28.02,NNW,333,0.0,0.0,56,0.00,,---,0.00,VWS V14.01,2013-08-26 15:34:00,
2013-08-26 10:39:00,85.2,66.2,28.02,NNW,333,0.0,2.0,53,0.00,,---,0.00,VWS V14.01,2013-08-26 15:39:00,
2013-08-26 10:44:00,85.0,66.0,28.02,North,355,0.0,2.0,53,0.00,,---,0.00,VWS V14.01,2013-08-26 15:44:00,
2013-08-26 10:49:00,85.1,67.1,28.02,North,355,0.0,1.0,55,0.00,,---,0.00,VWS V14.01,2013-08-26 15:49:00,
2013-08-26 10:54:00,85.5,66.4,28.02,North,355,0.0,0.0,53,0.00,,---,0.00,VWS V14.01,2013-08-26 15:54:00,
2013-08-26 10:59:00,85.9,66.2,28.02,North,355,0.0,0.0,52,0.00,,---,0.00,VWS V14.01,2013-08-26 15:59:00,
2013-08-26 11:04:00,86.0,66.3,28.02,North,355,1.0,1.0,52,0.00,,---,0.00,VWS V14.01,2013-08-26 16:04:00,
2013-08-26 11:09:00,85.4,65.8,28.02,NNE,15,0.0,0.0,52,0.00,,---,0.00,VWS V14.01,2013-08-26 16:09:00,
2013-08-26 11:14:00,85.0,66.5,28.02,NE,41,0.0,0.0,54,0.00,,---,0.00,VWS V14.01,2013-08-26 16:14:00,
2013-08-26 11:20:00,85.5,67.0,28.02,NE,40,0.0,1.0,54,0.00,,---,0.00,VWS V14.01,2013-08-26 16:20:00,
2013-08-26 11:25:00,85.6,67.6,28.02,NNE,27,0.0,0.0,55,0.00,,---,0.00,VWS V14.01,2013-08-26 16:25:00,
2013-08-26 11:30:00,85.0,66.0,28.02,NNE,29,0.0,0.0,53,0.00,,---,0.00,VWS V14.01,2013-08-26 16:30:00,
2013-08-26 11:35:00,85.5,66.4,28.02,NNE,29,0.0,0.0,53,0.00,,---,0.00,VWS V14.01,2013-08-26 16:35:00,
2013-08-26 11:40:00,86.2,68.7,28.02,NNE,29,0.0,0.0,56,0.00,,---,0.00,VWS V14.01,2013-08-26 16:40:00,
2013-08-26 11:46:00,86.2,67.1,28.02,NNE,29,0.0,0.0,53,0.00,,---,0.00,VWS V14.01,2013-08-26 16:46:00,
2013-08-26 11:51:00,85.2,66.2,28.01,North,5,3.0,4.0,53,0.00,,---,0.00,VWS V14.01,2013-08-26 16:51:00,
2013-08-26 11:56:00,84.5,67.1,28.01,NNW,329,2.0,5.0,56,0.00,,---,0.00,VWS V14.01,2013-08-26 16:56:00,
2013-08-26 12:01:00,84.3,67.9,28.01,NNW,344,3.0,3.0,58,0.00,,---,0.00,VWS V14.01,2013-08-26 17:01:00,
2013-08-26 12:06:00,84.5,68.1,28.01,NNE,21,2.0,2.0,58,0.00,,---,0.00,VWS V14.01,2013-08-26 17:06:00,
2013-08-26 12:11:00,84.3,65.9,28.01,NNW,348,1.0,1.0,54,0.00,,---,0.00,VWS V14.01,2013-08-26 17:11:00,
2013-08-26 12:17:00,83.9,66.5,28.01,North,355,0.0,2.0,56,0.00,,---,0.00,VWS V14.01,2013-08-26 17:17:00,
2013-08-26 12:22:00,84.1,67.2,28.01,North,5,0.0,2.0,57,0.00,,---,0.00,VWS V14.01,2013-08-26 17:22:00,
2013-08-26 12:27:00,84.1,66.7,28.01,North,360,1.0,4.0,56,0.00,,---,0.00,VWS V14.01,2013-08-26 17:27:00,
2013-08-26 12:32:00,84.0,66.6,28.01,North,360,2.0,2.0,56,0.00,,---,0.00,VWS V14.01,2013-08-26 17:32:00,
2013-08-26 12:38:00,84.4,68.0,28.01,North,360,0.0,1.0,58,0.00,,---,0.00,VWS V14.01,2013-08-26 17:38:00,
2013-08-26 12:43:00,84.2,66.3,28.01,North,355,2.0,4.0,55,0.00,,---,0.00,VWS V14.01,2013-08-26 17:43:00,
2013-08-26 12:48:00,84.3,67.4,28.01,NW,305,1.0,3.0,57,0.00,,---,0.00,VWS V14.01,2013-08-26 17:48:00,
2013-08-26 12:53:00,84.2,66.8,28.01,WNW,303,2.0,2.0,56,0.00,,---,0.00,VWS V14.01,2013-08-26 17:53:00,
2013-08-26 12:58:00,83.8,66.4,28.01,WNW,303,0.0,0.0,56,0.00,,---,0.00,VWS V14.01,2013-08-26 17:58:00,
2013-08-26 13:03:00,83.9,66.5,28.00,NW,305,0.0,0.0,56,0.00,,---,0.00,VWS V14.01,2013-08-26 18:03:00,
2013-08-26 13:09:00,83.8,66.4,28.00,NW,305,0.0,0.0,56,0.00,,---,0.00,VWS V14.01,2013-08-26 18:09:00,
2013-08-26 13:14:00,84.2,67.8,28.00,NW,305,1.0,1.0,58,0.00,,---,0.00,VWS V14.01,2013-08-26 18:14:00,
2013-08-26 13:19:00,84.7,67.3,28.00,NW,305,1.0,1.0,56,0.00,,---,0.00,VWS V14.01,2013-08-26 18:19:00,
2013-08-26 13:24:00,85.2,66.7,28.00,NW,320,0.0,1.0,54,0.00,,---,0.00,VWS V14.01,2013-08-26 18:24:00,
2013-08-26 13:29:00,85.5,67.5,28.00,NW,323,3.0,3.0,55,0.00,,---,0.00,VWS V14.01,2013-08-26 18:29:00,
2013-08-26 13:34:00,85.1,67.1,28.00,NNW,334,0.0,1.0,55,0.00,,---,0.00,VWS V14.01,2013-08-26 18:34:00,
2013-08-26 13:40:00,85.0,66.5,28.00,NNW,334,0.0,2.0,54,0.00,,---,0.00,VWS V14.01,2013-08-26 18:40:00,
2013-08-26 13:45:00,85.4,66.3,28.00,NNW,338,2.0,4.0,53,0.00,,---,0.00,VWS V14.01,2013-08-26 18:45:00,
2013-08-26 13:50:00,85.9,66.8,28.00,NNW,327,0.0,4.0,53,0.00,,---,0.00,VWS V14.01,2013-08-26 18:50:00,
2013-08-26 13:55:00,86.0,67.4,28.00,NNW,331,0.0,0.0,54,0.00,,---,0.00,VWS V14.01,2013-08-26 18:55:00,
2013-08-26 14:00:00,86.6,68.0,28.00,SW,230,5.0,5.0,54,0.00,,---,0.00,VWS V14.01,2013-08-26 19:00:00,
2013-08-26 14:05:00,86.3,66.1,28.00,SSW,213,0.0,0.0,51,0.00,,---,0.00,VWS V14.01,2013-08-26 19:05:00,
2013-08-26 14:10:00,86.2,67.6,28.00,SSW,213,0.0,0.0,54,0.00,,---,0.00,VWS V14.01,2013-08-26 19:10:00,
2013-08-26 14:15:00,85.9,67.9,28.00,SSW,213,0.0,0.0,55,0.00,,---,0.00,VWS V14.01,2013-08-26 19:15:00,
2013-08-26 14:20:00,85.8,67.2,28.00,SSW,213,0.0,0.0,54,0.00,,---,0.00,VWS V14.01,2013-08-26 19:20:00,
2013-08-26 14:25:00,85.9,66.2,28.00,SSW,213,0.0,0.0,52,0.00,,---,0.00,VWS V14.01,2013-08-26 19:25:00,
2013-08-26 14:31:00,86.4,67.3,28.00,SW,217,0.0,0.0,53,0.00,,---,0.00,VWS V14.01,2013-08-26 19:31:00,
2013-08-26 14:36:00,87.0,67.3,27.99,SW,216,0.0,2.0,52,0.00,,---,0.00,VWS V14.01,2013-08-26 19:36:00,
2013-08-26 14:41:00,88.1,68.3,27.99,SW,216,0.0,1.0,52,0.00,,---,0.00,VWS V14.01,2013-08-26 19:41:00,
2013-08-26 14:46:00,87.6,66.1,27.99,West,280,2.0,3.0,49,0.00,,---,0.00,VWS V14.01,2013-08-26 19:46:00,
2013-08-26 14:52:00,86.6,65.8,27.99,NNW,348,6.0,6.0,50,0.00,,---,0.00,VWS V14.01,2013-08-26 19:52:00,
2013-08-26 14:57:00,86.2,66.5,27.99,NW,326,2.0,3.0,52,0.00,,---,0.00,VWS V14.01,2013-08-26 19:57:00,
2013-08-26 15:02:00,86.3,64.9,27.98,NNW,340,0.0,2.0,49,0.00,,---,0.00,VWS V14.01,2013-08-26 20:02:00,
2013-08-26 15:07:00,86.4,65.0,27.98,North,5,1.0,2.0,49,0.00,,---,0.00,VWS V14.01,2013-08-26 20:07:00,
2013-08-26 15:12:00,87.2,65.7,27.98,WSW,254,4.0,4.0,49,0.00,,---,0.00,VWS V14.01,2013-08-26 20:12:00,
2013-08-26 15:17:00,88.0,65.3,27.98,WSW,253,1.0,1.0,47,0.00,,---,0.00,VWS V14.01,2013-08-26 20:17:00,
2013-08-26 15:22:00,88.4,66.2,27.98,NW,317,4.0,7.0,48,0.00,,---,0.00,VWS V14.01,2013-08-26 20:22:00,
2013-08-26 15:27:00,87.4,64.7,27.98,North,5,2.0,4.0,47,0.00,,---,0.00,VWS V14.01,2013-08-26 20:27:00,
2013-08-26 15:32:00,87.1,64.4,27.98,North,9,4.0,4.0,47,0.00,,---,0.00,VWS V14.01,2013-08-26 20:32:00,
2013-08-26 15:38:00,87.2,64.5,27.98,North,9,2.0,3.0,47,0.00,,---,0.00,VWS V14.01,2013-08-26 20:38:00,
2013-08-26 15:43:00,87.9,65.2,27.98,North,9,0.0,1.0,47,0.00,,---,0.00,VWS V14.01,2013-08-26 20:43:00,
2013-08-26 15:48:00,88.3,67.9,27.98,North,9,0.0,1.0,51,0.00,,---,0.00,VWS V14.01,2013-08-26 20:48:00,
2013-08-26 15:53:00,88.1,64.7,27.98,North,5,1.0,2.0,46,0.00,,---,0.00,VWS V14.01,2013-08-26 20:53:00,
2013-08-26 15:59:00,87.6,64.3,27.98,North,350,3.0,3.0,46,0.00,,---,0.00,VWS V14.01,2013-08-26 20:59:00,
2013-08-26 16:04:00,87.0,64.3,27.97,NW,308,2.0,2.0,47,0.00,,---,0.00,VWS V14.01,2013-08-26 21:04:00,
2013-08-26 16:09:00,86.1,63.5,27.97,NW,325,1.0,2.0,47,0.00,,---,0.00,VWS V14.01,2013-08-26 21:09:00,
2013-08-26 16:14:00,85.7,63.8,27.97,NNW,339,2.0,4.0,48,0.00,,---,0.00,VWS V14.01,2013-08-26 21:14:00,
2013-08-26 16:19:00,86.1,64.1,27.97,NNW,345,0.0,0.0,48,0.00,,---,0.00,VWS V14.01,2013-08-26 21:19:00,
2013-08-26 16:24:00,86.5,63.9,27.97,NNW,340,2.0,2.0,47,0.00,,---,0.00,VWS V14.01,2013-08-26 21:24:00,
2013-08-26 16:30:00,86.3,64.9,27.97,NNW,341,0.0,1.0,49,0.00,,---,0.00,VWS V14.01,2013-08-26 21:30:00,
2013-08-26 16:35:00,86.7,65.3,27.97,NNW,341,0.0,0.0,49,0.00,,---,0.00,VWS V14.01,2013-08-26 21:35:00,
2013-08-26 16:40:00,86.5,63.9,27.97,NNW,341,0.0,0.0,47,0.00,,---,0.00,VWS V14.01,2013-08-26 21:40:00,
2013-08-26 16:45:00,86.2,66.5,27.97,NNW,341,0.0,0.0,52,0.00,,---,0.00,VWS V14.01,2013-08-26 21:45:00,
2013-08-26 16:50:00,86.4,66.2,27.97,NNW,347,4.0,4.0,51,0.00,,---,0.00,VWS V14.01,2013-08-26 21:50:00,
2013-08-26 16:55:00,86.8,64.2,27.97,NNW,331,0.0,2.0,47,0.00,,---,0.00,VWS V14.01,2013-08-26 21:55:00,
2013-08-26 17:00:00,86.6,64.0,27.97,NNW,331,0.0,1.0,47,0.00,,---,0.00,VWS V14.01,2013-08-26 22:00:00,
2013-08-26 17:05:00,85.7,63.2,27.98,NNW,338,2.0,2.0,47,0.00,,---,0.00,VWS V14.01,2013-08-26 22:05:00,
2013-08-26 17:10:00,84.9,63.0,27.98,NNW,338,0.0,1.0,48,0.00,,---,0.00,VWS V14.01,2013-08-26 22:10:00,
2013-08-26 17:15:00,84.6,65.6,27.98,NNW,338,0.0,0.0,53,0.00,,---,0.00,VWS V14.01,2013-08-26 22:15:00,
2013-08-26 17:20:00,84.3,66.9,27.97,NNW,338,1.0,1.0,56,0.00,,---,0.00,VWS V14.01,2013-08-26 22:20:00,
2013-08-26 17:26:00,83.3,67.0,27.97,NNW,338,1.0,1.0,58,0.00,,---,0.00,VWS V14.01,2013-08-26 22:26:00,
2013-08-26 17:31:00,82.4,68.1,27.97,NNW,348,0.0,2.0,62,0.00,,---,0.00,VWS V14.01,2013-08-26 22:31:00,
2013-08-26 17:36:00,81.5,69.1,27.96,SE,128,0.0,1.0,66,0.00,,---,0.00,VWS V14.01,2013-08-26 22:36:00,
2013-08-26 17:41:00,81.1,68.7,27.96,SE,128,1.0,2.0,66,0.00,,---,0.00,VWS V14.01,2013-08-26 22:41:00,
2013-08-26 17:46:00,81.0,68.6,27.95,SE,146,2.0,5.0,66,0.00,,---,0.00,VWS V14.01,2013-08-26 22:46:00,
2013-08-26 17:52:00,81.1,67.8,27.95,SE,143,0.0,1.0,64,0.00,,---,0.00,VWS V14.01,2013-08-26 22:52:00,
2013-08-26 17:57:00,81.2,67.9,27.95,SE,138,0.0,0.0,64,0.00,,---,0.00,VWS V14.01,2013-08-26 22:57:00,
2013-08-26 18:02:00,81.1,68.7,27.95,SE,138,0.0,1.0,66,0.00,,---,0.00,VWS V14.01,2013-08-26 23:02:00,
2013-08-26 18:07:00,80.9,69.4,27.95,SE,138,1.0,2.0,68,0.00,,---,0.00,VWS V14.01,2013-08-26 23:07:00,
2013-08-26 18:12:00,80.3,67.5,27.95,SE,144,0.0,3.0,65,0.00,,---,0.00,VWS V14.01,2013-08-26 23:12:00,
2013-08-26 20:47:00,72.8,65.9,27.98,SSE,158,1.0,2.0,79,0.00,,---,0.00,VWS V14.01,2013-08-27 01:47:00,
2013-08-26 20:52:00,72.9,66.0,27.97,SSE,159,0.0,1.0,79,0.00,,---,0.00,VWS V14.01,2013-08-27 01:52:00,
2013-08-26 20:58:00,72.9,66.4,27.97,SSE,148,1.0,4.0,80,0.00,,---,0.00,VWS V14.01,2013-08-27 01:58:00,
2013-08-26 21:03:00,72.9,66.7,27.97,SSE,150,0.0,2.0,81,0.00,,---,0.00,VWS V14.01,2013-08-27 02:03:00,
2013-08-26 21:08:00,72.9,66.7,27.97,SSW,212,3.0,5.0,81,0.00,,---,0.00,VWS V14.01,2013-08-27 02:08:00,
2013-08-26 21:13:00,72.9,67.1,27.97,SSE,147,4.0,8.0,82,0.00,,---,0.00,VWS V14.01,2013-08-27 02:13:00,
2013-08-26 21:18:00,72.8,67.3,27.97,SSE,162,0.0,0.0,83,0.00,,---,0.00,VWS V14.01,2013-08-27 02:18:00,
2013-08-26 21:23:00,72.8,67.3,27.97,SSE,164,1.0,2.0,83,0.00,,---,0.00,VWS V14.01,2013-08-27 02:23:00,
2013-08-26 21:29:00,72.7,67.6,27.97,SSE,151,0.0,1.0,84,0.00,,---,0.00,VWS V14.01,2013-08-27 02:29:00,
2013-08-26 21:34:00,72.6,67.5,27.97,SSE,162,0.0,0.0,84,0.00,,---,0.00,VWS V14.01,2013-08-27 02:34:00,
2013-08-26 21:39:00,72.5,67.7,27.97,SSE,162,0.0,1.0,85,0.00,,---,0.00,VWS V14.01,2013-08-27 02:39:00,
2013-08-26 21:45:00,72.5,67.7,27.97,SSE,154,0.0,0.0,85,0.00,,---,0.00,VWS V14.01,2013-08-27 02:45:00,
2013-08-26 21:50:00,72.5,67.7,27.97,SSE,159,0.0,2.0,85,0.00,,---,0.00,VWS V14.01,2013-08-27 02:50:00,
2013-08-26 21:55:00,72.4,67.6,27.97,SE,145,0.0,0.0,85,0.00,,---,0.00,VWS V14.01,2013-08-27 02:55:00,
2013-08-26 22:00:00,72.4,67.6,27.97,SE,145,0.0,0.0,85,0.00,,---,0.00,VWS V14.01,2013-08-27 03:00:00,
2013-08-26 22:05:00,72.2,67.4,27.96,SE,145,0.0,0.0,85,0.00,,---,0.00,VWS V14.01,2013-08-27 03:05:00,
2013-08-26 22:10:00,72.1,67.7,27.96,SE,145,0.0,0.0,86,0.00,,---,0.00,VWS V14.01,2013-08-27 03:10:00,
2013-08-26 22:16:00,71.9,67.5,27.96,SE,145,0.0,0.0,86,0.00,,---,0.00,VWS V14.01,2013-08-27 03:16:00,
2013-08-26 22:21:00,71.7,67.6,27.95,SE,146,0.0,5.0,87,0.00,,---,0.00,VWS V14.01,2013-08-27 03:21:00,
2013-08-26 22:26:00,71.7,67.6,27.95,SSE,157,3.0,4.0,87,0.00,,---,0.00,VWS V14.01,2013-08-27 03:26:00,
2013-08-26 22:31:00,71.7,67.6,27.95,SSE,163,0.0,2.0,87,0.00,,---,0.00,VWS V14.01,2013-08-27 03:31:00,
2013-08-26 22:36:00,71.7,67.6,27.95,SSW,208,3.0,6.0,87,0.00,,---,0.00,VWS V14.01,2013-08-27 03:36:00,
2013-08-26 22:41:00,71.7,67.6,27.95,SSE,165,2.0,4.0,87,0.00,,---,0.00,VWS V14.01,2013-08-27 03:41:00,
2013-08-26 22:47:00,71.7,67.6,27.94,SSE,163,1.0,1.0,87,0.00,,---,0.00,VWS V14.01,2013-08-27 03:47:00,
2013-08-26 22:52:00,71.7,67.3,27.94,ESE,117,3.0,5.0,86,0.00,,---,0.00,VWS V14.01,2013-08-27 03:52:00,
2013-08-26 22:57:00,71.7,67.3,27.94,South,173,0.0,0.0,86,0.00,,---,0.00,VWS V14.01,2013-08-27 03:57:00,
2013-08-26 23:01:00,71.6,67.2,27.94,ESE,111,0.0,2.0,86,0.00,,---,0.00,VWS V14.01,2013-08-27 04:01:00,
2013-08-26 23:02:00,71.6,67.2,27.94,ESE,123,0.0,1.0,86,0.00,,---,0.00,VWS V14.01,2013-08-27 04:02:00,
2013-08-26 23:03:00,71.6,67.2,27.94,ESE,123,0.0,0.0,86,0.00,,---,0.00,VWS V14.01,2013-08-27 04:03:00,
2013-08-26 23:08:00,71.5,67.1,27.94,SE,126,0.0,1.0,86,0.00,,---,0.00,VWS V14.01,2013-08-27 04:08:00,
2013-08-26 23:13:00,71.4,67.3,27.94,SE,126,0.0,0.0,87,0.00,,---,0.00,VWS V14.01,2013-08-27 04:13:00,
2013-08-26 23:18:00,71.3,67.2,27.94,SE,124,0.0,0.0,87,0.00,,---,0.00,VWS V14.01,2013-08-27 04:18:00,
2013-08-26 23:23:00,71.3,67.2,27.94,SE,124,0.0,0.0,87,0.00,,---,0.00,VWS V14.01,2013-08-27 04:23:00,
2013-08-26 23:29:00,71.1,67.0,27.94,SE,124,0.0,0.0,87,0.00,,---,0.00,VWS V14.01,2013-08-27 04:29:00,
2013-08-26 23:34:00,70.9,66.8,27.94,SE,124,0.0,0.0,87,0.00,,---,0.00,VWS V14.01,2013-08-27 04:34:00,
2013-08-26 23:39:00,70.6,66.9,27.94,SE,124,0.0,0.0,88,0.00,,---,0.00,VWS V14.01,2013-08-27 04:39:00,
2013-08-26 23:44:00,70.5,66.8,27.94,SE,124,0.0,0.0,88,0.00,,---,0.00,VWS V14.01,2013-08-27 04:44:00,
2013-08-26 23:49:00,70.3,66.9,27.95,SE,124,0.0,0.0,89,0.00,,---,0.00,VWS V14.01,2013-08-27 04:49:00,
2013-08-26 23:54:00,70.3,66.9,27.95,SE,124,0.0,0.0,89,0.00,,---,0.00,VWS V14.01,2013-08-27 04:54:00,
2013-08-26 23:59:00,70.2,67.1,27.95,SE,124,0.0,0.0,90,0.00,,---,0.00,VWS V14.01,2013-08-27 04:59:00,